| time (UTC) | temp C | wind direction | speed KPH | gust KPH | rain 1hr cm | rain 24hr cm | rain mn cm | humidity % | barometer mb |
| 20260505110905 | 6 | 169 | 3.2 | 4.8 | 0.00 | 0.00 | 0.00 | 75 | 1013.3 |
| 20260505110402 | 6 | 110 | 3.2 | 4.8 | 0.00 | 0.00 | 0.00 | 78 | 1013.1 |
| 20260505101833 | 6 | 152 | 6.4 | 11.3 | 0.00 | 0.00 | 0.00 | 84 | 1013.2 |
| 20260505101328 | 6 | 151 | 3.2 | 9.7 | 0.00 | 0.00 | 0.00 | 83 | 1013.2 |
| 20260505100824 | 6 | 138 | 3.2 | 11.3 | 0.00 | 0.00 | 0.00 | 83 | 1013.2 |
| 20260505100321 | 6 | 92 | 3.2 | 9.7 | 0.00 | 0.00 | 0.00 | 83 | 1013.0 |
| 20260505095816 | 6 | 158 | 8.0 | 11.3 | 0.00 | 0.00 | 0.00 | 82 | 1013.2 |
| 20260505095314 | 6 | 172 | 6.4 | 9.7 | 0.00 | 0.00 | 0.00 | 82 | 1012.8 |
| 20260505094810 | 6 | 130 | 1.6 | 9.7 | 0.00 | 0.00 | 0.00 | 81 | 1012.8 |
| 20260505094307 | 6 | 167 | 8.0 | 9.7 | 0.00 | 0.00 | 0.00 | 81 | 1013.0 |
| 20260505093802 | 6 | 195 | 1.6 | 3.2 | 0.00 | 0.00 | 0.00 | 82 | 1013.0 |
| 20260505093300 | 6 | 221 | 1.6 | 4.8 | 0.00 | 0.00 | 0.00 | 82 | 1013.0 |
| 20260505092757 | 6 | 176 | 4.8 | 4.8 | 0.00 | 0.00 | 0.00 | 82 | 1013.0 |
| 20260505092255 | 6 | 174 | 1.6 | 3.2 | 0.00 | 0.00 | 0.00 | 81 | 1013.1 |
| 20260505091752 | 6 | 174 | 3.2 | 4.8 | 0.00 | 0.00 | 0.00 | 81 | 1013.0 |
| 20260505091250 | 6 | 237 | 3.2 | 3.2 | 0.00 | 0.00 | 0.00 | 81 | 1013.1 |
| 20260505090748 | 6 | 237 | 3.2 | 4.8 | 0.00 | 0.00 | 0.00 | 81 | 1013.3 |
| 20260505090246 | 6 | 237 | 1.6 | 1.6 | 0.00 | 0.00 | 0.00 | 81 | 1013.3 |
| 20260505085743 | 6 | 239 | 1.6 | 3.2 | 0.00 | 0.00 | 0.00 | 81 | 1013.1 |
| 20260505085241 | 6 | 335 | 3.2 | 1.6 | 0.00 | 0.00 | 0.00 | 81 | 1013.3 |
| 20260505084738 | 6 | 337 | 0.0 | 0.0 | 0.00 | 0.00 | 0.00 | 82 | 1013.2 |
| 20260505084237 | 6 | 337 | 0.0 | 0.0 | 0.00 | 0.00 | 0.00 | 81 | 1013.4 |
| 20260505083733 | 6 | 337 | 0.0 | 0.0 | 0.00 | 0.00 | 0.00 | 81 | 1013.8 |
| 20260505083230 | 6 | 337 | 0.0 | 0.0 | 0.00 | 0.00 | 0.00 | 81 | 1013.8 |
| 20260505082726 | 6 | 337 | 0.0 | 0.0 | 0.00 | 0.00 | 0.00 | 80 | 1013.6 |
| 20260505082224 | 6 | 337 | 0.0 | 0.0 | 0.00 | 0.00 | 0.00 | 79 | 1013.8 |
| 20260505081719 | 6 | 337 | 0.0 | 1.6 | 0.00 | 0.00 | 0.00 | 79 | 1014.1 |
| 20260505081217 | 6 | 337 | 0.0 | 0.0 | 0.00 | 0.00 | 0.00 | 80 | 1014.1 |
| 20260505080714 | 6 | 337 | 0.0 | 0.0 | 0.00 | 0.00 | 0.00 | 81 | 1013.7 |
| 20260505080209 | 6 | 337 | 3.2 | 3.2 | 0.00 | 0.00 | 0.00 | 80 | 1014.2 |
| 20260505075705 | 6 | 338 | 0.0 | 1.6 | 0.00 | 0.00 | 0.00 | 80 | 1013.8 |
| 20260505075203 | 6 | 337 | 3.2 | 3.2 | 0.00 | 0.00 | 0.00 | 80 | 1013.9 |
| 20260505074700 | 6 | 334 | 0.0 | 3.2 | 0.00 | 0.00 | 0.00 | 80 | 1014.1 |
| 20260505074157 | 6 | 338 | 0.0 | 3.2 | 0.00 | 0.00 | 0.00 | 81 | 1014.3 |
| 20260505073655 | 6 | 338 | 0.0 | 1.6 | 0.00 | 0.00 | 0.00 | 80 | 1014.1 |
| 20260505073153 | 6 | 337 | 1.6 | 3.2 | 0.00 | 0.00 | 0.00 | 80 | 1014.4 |
| 20260505072648 | 6 | 344 | 3.2 | 4.8 | 0.00 | 0.00 | 0.00 | 80 | 1014.2 |
| 20260505072145 | 6 | 352 | 3.2 | 3.2 | 0.00 | 0.00 | 0.00 | 80 | 1014.3 |
| 20260505071640 | 6 | 351 | 4.8 | 4.8 | 0.00 | 0.00 | 0.00 | 79 | 1013.9 |
| 20260505071138 | 6 | 327 | 3.2 | 3.2 | 0.00 | 0.00 | 0.00 | 80 | 1013.9 |
| 20260505070635 | 6 | 327 | 1.6 | 3.2 | 0.00 | 0.00 | 0.00 | 80 | 1014.1 |
| 20260505070131 | 6 | 337 | 1.6 | 6.4 | 0.00 | 0.00 | 0.00 | 80 | 1014.2 |
| 20260505065627 | 6 | 346 | 1.6 | 1.6 | 0.00 | 0.00 | 0.00 | 81 | 1014.1 |
| 20260505065124 | 6 | 346 | 1.6 | 4.8 | 0.00 | 0.00 | 0.00 | 81 | 1014.2 |
| 20260505064621 | 6 | 328 | 3.2 | 9.7 | 0.00 | 0.00 | 0.00 | 80 | 1014.3 |
| 20260505064120 | 6 | 325 | 3.2 | 4.8 | 0.00 | 0.00 | 0.00 | 81 | 1014.3 |
| 20260505063617 | 6 | 312 | 1.6 | 1.6 | 0.00 | 0.00 | 0.00 | 83 | 1014.2 |
| 20260505063112 | 6 | 318 | 1.6 | 3.2 | 0.00 | 0.00 | 0.00 | 84 | 1014.4 |
| 20260505062609 | 6 | 314 | 1.6 | 1.6 | 0.00 | 0.00 | 0.00 | 85 | 1014.7 |
| 20260505062106 | 6 | 323 | 0.0 | 0.0 | 0.00 | 0.00 | 0.00 | 85 | 1014.5 |
| 20260505061603 | 6 | 322 | 0.0 | 1.6 | 0.00 | 0.00 | 0.00 | 83 | 1014.2 |
| 20260505061101 | 6 | 323 | 3.2 | 3.2 | 0.00 | 0.00 | 0.00 | 83 | 1014.4 |
| 20260505060559 | 6 | 320 | 1.6 | 9.7 | 0.00 | 0.00 | 0.00 | 82 | 1014.4 |
| 20260505060055 | 6 | 35 | 3.2 | 3.2 | 0.00 | 0.00 | 0.00 | 81 | 1014.3 |
| 20260505055550 | 7 | 36 | 3.2 | 3.2 | 0.00 | 0.00 | 0.00 | 81 | 1014.3 |
| 20260505055047 | 7 | 37 | 3.2 | 3.2 | 0.00 | 0.00 | 0.00 | 79 | 1014.3 |
| 20260505054545 | 7 | 349 | 6.4 | 4.8 | 0.00 | 0.00 | 0.00 | 75 | 1014.8 |
| 20260505054043 | 7 | 312 | 0.0 | 1.6 | 0.00 | 0.00 | 0.00 | 72 | 1014.4 |
| 20260505053539 | 8 | 323 | 1.6 | 1.6 | 0.00 | 0.00 | 0.00 | 69 | 1014.4 |
| 20260505053036 | 8 | 325 | 0.0 | 1.6 | 0.00 | 0.00 | 0.00 | 67 | 1014.4 |
| 20260505052533 | 8 | 335 | 1.6 | 3.2 | 0.00 | 0.00 | 0.00 | 66 | 1014.7 |
| 20260505052031 | 8 | 337 | 1.6 | 9.7 | 0.00 | 0.00 | 0.00 | 65 | 1014.5 |
| 20260505051527 | 8 | 340 | 6.4 | 12.9 | 0.00 | 0.00 | 0.00 | 65 | 1014.3 |
| 20260505051026 | 8 | 350 | 4.8 | 9.7 | 0.00 | 0.00 | 0.00 | 64 | 1014.4 |
| 20260505050523 | 8 | 1 | 6.4 | 11.3 | 0.00 | 0.00 | 0.00 | 64 | 1014.8 |
| 20260505041451 | 8 | 359 | 6.4 | 12.9 | 0.00 | 0.00 | 0.00 | 66 | 1013.7 |
| 20260505040948 | 8 | 9 | 8.0 | 14.5 | 0.00 | 0.00 | 0.00 | 66 | 1013.6 |
| 20260505040446 | 8 | 353 | 8.0 | 12.9 | 0.00 | 0.00 | 0.00 | 66 | 1013.6 |
| 20260505035942 | 8 | 358 | 4.8 | 6.4 | 0.00 | 0.00 | 0.00 | 65 | 1013.8 |
| 20260505035438 | 8 | 340 | 8.0 | 9.7 | 0.00 | 0.00 | 0.00 | 64 | 1013.6 |
| 20260505034936 | 8 | 353 | 4.8 | 9.7 | 0.00 | 0.00 | 0.00 | 63 | 1013.3 |
| 20260505034432 | 8 | 351 | 6.4 | 11.3 | 0.00 | 0.00 | 0.00 | 62 | 1013.2 |
| 20260505033929 | 8 | 338 | 8.0 | 11.3 | 0.00 | 0.00 | 0.00 | 62 | 1013.6 |
| 20260505033426 | 8 | 352 | 9.7 | 11.3 | 0.00 | 0.00 | 0.00 | 61 | 1013.4 |
| 20260505032924 | 8 | 351 | 9.7 | 11.3 | 0.00 | 0.00 | 0.00 | 61 | 1013.4 |
| 20260505032421 | 8 | 0 | 6.4 | 9.7 | 0.00 | 0.00 | 0.00 | 62 | 1013.8 |
| 20260505031917 | 8 | 344 | 9.7 | 11.3 | 0.00 | 0.00 | 0.00 | 62 | 1013.8 |
| 20260505031414 | 9 | 7 | 4.8 | 6.4 | 0.00 | 0.00 | 0.00 | 61 | 1013.4 |
| 20260505030912 | 9 | 326 | 9.7 | 12.9 | 0.00 | 0.00 | 0.00 | 59 | 1013.6 |
| 20260505030407 | 9 | 358 | 6.4 | 9.7 | 0.00 | 0.00 | 0.00 | 59 | 1013.1 |
| 20260505025903 | 9 | 336 | 3.2 | 9.7 | 0.00 | 0.00 | 0.00 | 58 | 1013.3 |
| 20260505025401 | 9 | 349 | 6.4 | 6.4 | 0.00 | 0.00 | 0.00 | 58 | 1013.3 |
| 20260505024859 | 10 | 336 | 4.8 | 4.8 | 0.00 | 0.00 | 0.00 | 57 | 1013.4 |
| 20260505024356 | 10 | 350 | 4.8 | 6.4 | 0.00 | 0.00 | 0.00 | 57 | 1013.7 |
| 20260505023853 | 10 | 352 | 6.4 | 9.7 | 0.00 | 0.00 | 0.00 | 56 | 1013.3 |
| 20260505023350 | 10 | 3 | 6.4 | 9.7 | 0.00 | 0.00 | 0.00 | 56 | 1013.4 |
| 20260505022847 | 10 | 357 | 6.4 | 9.7 | 0.00 | 0.00 | 0.00 | 56 | 1013.2 |
| 20260505022344 | 10 | 348 | 4.8 | 6.4 | 0.00 | 0.00 | 0.00 | 56 | 1013.4 |
| 20260505021842 | 9 | 349 | 1.6 | 3.2 | 0.00 | 0.00 | 0.00 | 57 | 1013.7 |
| 20260505021338 | 9 | 24 | 1.6 | 1.6 | 0.00 | 0.00 | 0.00 | 58 | 1013.3 |
| 20260505020834 | 10 | 15 | 1.6 | 4.8 | 0.00 | 0.00 | 0.00 | 57 | 1013.4 |
| 20260505020330 | 10 | 350 | 6.4 | 12.9 | 0.00 | 0.00 | 0.00 | 57 | 1013.6 |
| 20260505015827 | 10 | 359 | 9.7 | 12.9 | 0.00 | 0.00 | 0.00 | 56 | 1013.7 |
| 20260505015324 | 10 | 46 | 6.4 | 9.7 | 0.00 | 0.00 | 0.00 | 56 | 1013.6 |
| 20260505014821 | 10 | 359 | 6.4 | 14.5 | 0.00 | 0.00 | 0.00 | 55 | 1013.6 |
| 20260505014318 | 10 | 344 | 9.7 | 11.3 | 0.00 | 0.00 | 0.00 | 57 | 1013.1 |
| 20260505013814 | 10 | 353 | 6.4 | 9.7 | 0.00 | 0.00 | 0.00 | 56 | 1013.2 |
| 20260505013312 | 10 | 349 | 6.4 | 9.7 | 0.00 | 0.00 | 0.00 | 56 | 1013.1 |
| 20260505012810 | 10 | 353 | 4.8 | 6.4 | 0.00 | 0.00 | 0.00 | 57 | 1013.1 |
| 20260505012308 | 11 | 341 | 9.7 | 22.5 | 0.00 | 0.00 | 0.00 | 52 | 1013.0 |
| 20260505011803 | 11 | 351 | 14.5 | 16.1 | 0.00 | 0.00 | 0.00 | 48 | 1013.3 |
| 20260505011300 | 12 | 25 | 8.0 | 9.7 | 0.00 | 0.00 | 0.00 | 44 | 1013.0 |
| 20260505010756 | 12 | 328 | 9.7 | 12.9 | 0.00 | 0.00 | 0.00 | 42 | 1012.6 |
| 20260505010252 | 12 | 335 | 6.4 | 17.7 | 0.00 | 0.00 | 0.00 | 42 | 1012.6 |
| 20260505005748 | 12 | 344 | 4.8 | 16.1 | 0.00 | 0.00 | 0.00 | 42 | 1012.5 |
| 20260505005246 | 12 | 341 | 16.1 | 24.1 | 0.00 | 0.00 | 0.00 | 42 | 1012.5 |
| 20260505004743 | 12 | 9 | 6.4 | 14.5 | 0.00 | 0.00 | 0.00 | 41 | 1012.3 |
| 20260505004239 | 12 | 319 | 6.4 | 9.7 | 0.00 | 0.00 | 0.00 | 41 | 1012.3 |
| 20260505003736 | 12 | 308 | 8.0 | 17.7 | 0.00 | 0.00 | 0.00 | 40 | 1012.2 |
| 20260505003234 | 12 | 329 | 12.9 | 22.5 | 0.00 | 0.00 | 0.00 | 40 | 1012.1 |
| 20260505002730 | 13 | 356 | 8.0 | 12.9 | 0.00 | 0.00 | 0.00 | 39 | 1012.0 |
| 20260505002228 | 13 | 13 | 14.5 | 29.0 | 0.00 | 0.00 | 0.00 | 36 | 1011.7 |
| 20260505001725 | 14 | 4 | 14.5 | 24.1 | 0.00 | 0.00 | 0.00 | 34 | 1011.5 |
| 20260505001223 | 15 | 340 | 6.4 | 14.5 | 0.00 | 0.00 | 0.00 | 32 | 1011.2 |
| 20260505000719 | 15 | 13 | 4.8 | 4.8 | 0.00 | 0.00 | 0.00 | 33 | 1011.0 |
| 20260505000218 | 15 | 39 | 1.6 | 12.9 | 0.00 | 0.00 | 0.00 | 32 | 1010.7 |
| 20260504235714 | 15 | 350 | 6.4 | 16.1 | 0.00 | 0.00 | 0.00 | 32 | 1011.0 |
| 20260504235210 | 15 | 9 | 12.9 | 16.1 | 0.00 | 0.00 | 0.00 | 32 | 1011.1 |
| 20260504234707 | 16 | 37 | 11.3 | 14.5 | 0.00 | 0.00 | 0.00 | 31 | 1011.0 |
| 20260504234204 | 16 | 2 | 8.0 | 17.7 | 0.00 | 0.00 | 0.00 | 31 | 1010.5 |
| 20260504233700 | 16 | 352 | 11.3 | 17.7 | 0.00 | 0.00 | 0.00 | 31 | 1010.7 |
| 20260504233156 | 16 | 345 | 16.1 | 22.5 | 0.00 | 0.00 | 0.00 | 30 | 1010.9 |
| 20260504232654 | 16 | 33 | 4.8 | 9.7 | 0.00 | 0.00 | 0.00 | 32 | 1010.9 |
| 20260504232150 | 16 | 36 | 6.4 | 9.7 | 0.00 | 0.00 | 0.00 | 30 | 1011.0 |
| 20260504231647 | 16 | 32 | 4.8 | 9.7 | 0.00 | 0.00 | 0.00 | 32 | 1011.0 |
| 20260504231144 | 16 | 42 | 1.6 | 3.2 | 0.00 | 0.00 | 0.00 | 32 | 1010.9 |
| 20260504230640 | 16 | 67 | 1.6 | 6.4 | 0.00 | 0.00 | 0.00 | 32 | 1010.9 |
| 20260504230139 | 16 | 79 | 1.6 | 6.4 | 0.00 | 0.00 | 0.00 | 33 | 1010.6 |
| 20260504225637 | 16 | 66 | 1.6 | 11.3 | 0.00 | 0.00 | 0.00 | 32 | 1010.9 |
| 20260504225132 | 16 | 96 | 3.2 | 11.3 | 0.00 | 0.00 | 0.00 | 33 | 1010.5 |
| 20260504224630 | 16 | 55 | 9.7 | 12.9 | 0.00 | 0.00 | 0.00 | 32 | 1010.7 |
| 20260504224126 | 16 | 40 | 8.0 | 9.7 | 0.00 | 0.00 | 0.00 | 32 | 1010.6 |
| 20260504223623 | 16 | 79 | 6.4 | 9.7 | 0.00 | 0.00 | 0.00 | 32 | 1010.5 |
| 20260504223119 | 16 | 84 | 4.8 | 12.9 | 0.00 | 0.00 | 0.00 | 32 | 1010.6 |
| 20260504222616 | 16 | 117 | 9.7 | 17.7 | 0.00 | 0.00 | 0.00 | 29 | 1010.6 |
| 20260504222114 | 17 | 169 | 14.5 | 16.1 | 0.00 | 0.00 | 0.00 | 27 | 1010.9 |
| 20260504221610 | 17 | 70 | 6.4 | 12.9 | 0.00 | 0.00 | 0.00 | 27 | 1010.5 |
| 20260504221108 | 18 | 83 | 6.4 | 16.1 | 0.00 | 0.00 | 0.00 | 26 | 1010.3 |
| 20260504220603 | 17 | 152 | 9.7 | 11.3 | 0.00 | 0.00 | 0.00 | 25 | 1010.4 |
| 20260504215557 | 17 | 233 | 12.9 | 14.5 | 0.00 | 0.00 | 0.00 | 25 | 1010.5 |
| 20260504215055 | 17 | 219 | 8.0 | 14.5 | 0.00 | 0.00 | 0.00 | 26 | 1010.6 |
| 20260504214550 | 17 | 151 | 4.8 | 6.4 | 0.00 | 0.00 | 0.00 | 25 | 1010.6 |
| 20260504214047 | 16 | 96 | 0.0 | 9.7 | 0.00 | 0.00 | 0.00 | 25 | 1010.7 |
| 20260504213543 | 16 | 54 | 6.4 | 9.7 | 0.00 | 0.00 | 0.00 | 24 | 1010.5 |
| 20260504213041 | 17 | 331 | 14.5 | 22.5 | 0.00 | 0.00 | 0.00 | 25 | 1010.7 |
| 20260504212537 | 16 | 318 | 8.0 | 11.3 | 0.00 | 0.00 | 0.00 | 24 | 1010.9 |
| 20260504212034 | 17 | 336 | 8.0 | 16.1 | 0.00 | 0.00 | 0.00 | 24 | 1010.7 |
| 20260504211531 | 17 | 347 | 6.4 | 17.7 | 0.00 | 0.00 | 0.00 | 24 | 1010.5 |
| 20260504211028 | 17 | 331 | 8.0 | 20.9 | 0.00 | 0.00 | 0.00 | 24 | 1010.7 |
| 20260504210525 | 17 | 347 | 14.5 | 17.7 | 0.00 | 0.00 | 0.00 | 24 | 1010.5 |
| 20260504210022 | 17 | 320 | 9.7 | 14.5 | 0.00 | 0.00 | 0.00 | 24 | 1010.5 |
| 20260504205520 | 17 | 35 | 8.0 | 20.9 | 0.00 | 0.00 | 0.00 | 24 | 1010.4 |
| 20260504205017 | 18 | 335 | 12.9 | 20.9 | 0.00 | 0.00 | 0.00 | 23 | 1010.3 |
| 20260504204515 | 20 | 342 | 9.7 | 24.1 | 0.00 | 0.00 | 0.00 | 20 | 1010.6 |
| 20260504204014 | 20 | 30 | 0.0 | 1.6 | 0.00 | 0.00 | 0.00 | 20 | 1010.3 |
| 20260504203511 | 20 | 164 | 1.6 | 3.2 | 0.00 | 0.00 | 0.00 | 19 | 1010.5 |
| 20260504203009 | 20 | 44 | 3.2 | 11.3 | 0.00 | 0.00 | 0.00 | 20 | 1010.5 |
| 20260504202504 | 20 | 38 | 4.8 | 4.8 | 0.00 | 0.00 | 0.00 | 21 | 1010.7 |
| 20260504202001 | 19 | 265 | 3.2 | 6.4 | 0.00 | 0.00 | 0.00 | 21 | 1010.5 |
| 20260504201458 | 19 | 342 | 11.3 | 16.1 | 0.00 | 0.00 | 0.00 | 21 | 1010.6 |
| 20260504200956 | 18 | 334 | 11.3 | 16.1 | 0.00 | 0.00 | 0.00 | 21 | 1010.9 |
| 20260504200452 | 18 | 323 | 4.8 | 11.3 | 0.00 | 0.00 | 0.00 | 23 | 1011.0 |
| 20260504195949 | 17 | 294 | 8.0 | 11.3 | 0.00 | 0.00 | 0.00 | 23 | 1011.0 |
| 20260504195445 | 17 | 342 | 4.8 | 16.1 | 0.00 | 0.00 | 0.00 | 23 | 1011.4 |
| 20260504194942 | 17 | 228 | 4.8 | 16.1 | 0.00 | 0.00 | 0.00 | 25 | 1011.6 |
| 20260504194438 | 17 | 259 | 16.1 | 29.0 | 0.00 | 0.00 | 0.00 | 23 | 1011.5 |
| 20260504193934 | 17 | 357 | 25.7 | 30.6 | 0.00 | 0.00 | 0.00 | 22 | 1011.1 |
| 20260504193431 | 18 | 5 | 12.9 | 16.1 | 0.00 | 0.00 | 0.00 | 20 | 1011.2 |
| 20260504192930 | 18 | 242 | 9.7 | 16.1 | 0.00 | 0.00 | 0.00 | 19 | 1011.4 |
| 20260504192427 | 19 | 338 | 12.9 | 16.1 | 0.00 | 0.00 | 0.00 | 18 | 1011.0 |
| 20260504191926 | 20 | 328 | 3.2 | 4.8 | 0.00 | 0.00 | 0.00 | 19 | 1010.9 |
| 20260504191423 | 20 | 0 | 3.2 | 11.3 | 0.00 | 0.00 | 0.00 | 18 | 1010.9 |
| 20260504190918 | 20 | 232 | 12.9 | 17.7 | 0.00 | 0.00 | 0.00 | 16 | 1010.6 |
| 20260504190414 | 20 | 73 | 3.2 | 11.3 | 0.00 | 0.00 | 0.00 | 17 | 1010.6 |
| 20260504185911 | 20 | 169 | 9.7 | 17.7 | 0.00 | 0.00 | 0.00 | 15 | 1010.9 |
| 20260504185408 | 20 | 153 | 11.3 | 14.5 | 0.00 | 0.00 | 0.00 | 16 | 1011.0 |
| 20260504184904 | 20 | 180 | 14.5 | 17.7 | 0.00 | 0.00 | 0.00 | 15 | 1011.1 |
| 20260504184400 | 21 | 204 | 6.4 | 11.3 | 0.00 | 0.00 | 0.00 | 16 | 1011.4 |
| 20260504183856 | 20 | 177 | 1.6 | 6.4 | 0.00 | 0.00 | 0.00 | 17 | 1011.5 |
| 20260504183354 | 20 | 39 | 4.8 | 12.9 | 0.00 | 0.00 | 0.00 | 15 | 1011.5 |
| 20260504182851 | 20 | 127 | 3.2 | 20.9 | 0.00 | 0.00 | 0.00 | 15 | 1011.6 |
| 20260504182348 | 20 | 189 | 3.2 | 4.8 | 0.00 | 0.00 | 0.00 | 15 | 1012.0 |
| 20260504181845 | 20 | 265 | 4.8 | 12.9 | 0.00 | 0.00 | 0.00 | 15 | 1012.0 |
| 20260504181342 | 20 | 174 | 3.2 | 12.9 | 0.00 | 0.00 | 0.00 | 18 | 1011.9 |
| 20260504180841 | 19 | 60 | 1.6 | 6.4 | 0.00 | 0.00 | 0.00 | 17 | 1012.1 |
| 20260504180339 | 19 | 101 | 4.8 | 9.7 | 0.00 | 0.00 | 0.00 | 18 | 1012.0 |
| 20260504175837 | 18 | 84 | 3.2 | 6.4 | 0.00 | 0.00 | 0.00 | 19 | 1012.1 |
| 20260504175333 | 20 | 152 | 8.0 | 12.9 | 0.00 | 0.00 | 0.00 | 18 | 1012.3 |
| 20260504174832 | 19 | 131 | 4.8 | 11.3 | 0.00 | 0.00 | 0.00 | 20 | 1012.1 |
| 20260504174329 | 19 | 192 | 1.6 | 12.9 | 0.00 | 0.00 | 0.00 | 18 | 1012.3 |
| 20260504173826 | 20 | 228 | 4.8 | 17.7 | 0.00 | 0.00 | 0.00 | 19 | 1012.6 |
| 20260504173322 | 18 | 110 | 3.2 | 6.4 | 0.00 | 0.00 | 0.00 | 21 | 1012.7 |
| 20260504172820 | 17 | 179 | 6.4 | 14.5 | 0.00 | 0.00 | 0.00 | 22 | 1012.7 |
| 20260504172316 | 17 | 178 | 12.9 | 20.9 | 0.00 | 0.00 | 0.00 | 18 | 1013.2 |
| 20260504171812 | 16 | 282 | 9.7 | 20.9 | 0.00 | 0.00 | 0.00 | 23 | 1013.2 |
| 20260504171309 | 16 | 297 | 11.3 | 27.4 | 0.00 | 0.00 | 0.00 | 23 | 1013.2 |
| 20260504170806 | 16 | 246 | 12.9 | 17.7 | 0.00 | 0.00 | 0.00 | 23 | 1013.1 |
| 20260504170303 | 16 | 221 | 14.5 | 30.6 | 0.00 | 0.00 | 0.00 | 23 | 1013.3 |
| 20260504160222 | 16 | 237 | 20.9 | 33.8 | 0.00 | 0.00 | 0.00 | 28 | 1013.4 |
| 20260504151150 | 13 | 24 | 12.9 | 25.7 | 0.00 | 0.00 | 0.00 | 30 | 1013.4 |
| 20260504150647 | 13 | 345 | 9.7 | 14.5 | 0.00 | 0.00 | 0.00 | 30 | 1013.8 |
| 20260504150144 | 13 | 318 | 6.4 | 25.7 | 0.00 | 0.00 | 0.00 | 30 | 1013.4 |
| 20260504141113 | 14 | 310 | 8.0 | 24.1 | 0.00 | 0.00 | 0.00 | 29 | 1013.6 |
| 20260504140609 | 14 | 239 | 9.7 | 16.1 | 0.00 | 0.00 | 0.00 | 28 | 1013.3 |
| 20260504140105 | 14 | 353 | 9.7 | 16.1 | 0.00 | 0.00 | 0.00 | 28 | 1013.2 |
| 20260504130533 | 14 | 70 | 1.6 | 17.7 | 0.00 | 0.00 | 0.00 | 26 | 1013.4 |